Flag for U.S.A. Weather past 2 weeks in Lincoln, Nebraska, U.S.A.

Now
22 °F

Sunny.


Feels Like: 22 °F
Forecast: 31 / 57 °F
Wind: No wind

Location: Lincoln Municipal Airport

Current Time: Jan 27, 2015 at 8:26:57 AM

Latest Report: Jan 27, 2015 at 7:54 AM


Visibility: 10 mi

Pressure: 30.16 "Hg

Humidity: 92%

Dew point: 20 °F

Location of LincolnLocation

Historic Weather in Lincoln — Graph

°F

Lincoln temperature yesterday

Maximum temperature yesterday: 62 °F (at 2:54 PM)
Minimum temperature yesterday: 29 °F (at 4:54 AM)
Average temperature yesterday: 42 °F

Past Weeks' High & Low Weather Summary

 TemperatureHumidityPressure
High62 °F (Jan 26, 2:54 PM)92% (Jan 16, 12:54 AM)30.82 "Hg (Jan 16, 12:54 AM)
Low-4 °F (Jan 13, 3:54 AM)27% (Jan 18, 3:54 PM)29.67 "Hg (Jan 24, 9:54 PM)
Average34 °F66%30.15 "Hg
* Reported Jan 12 6:54 AM — Jan 27 6:54 AM, Lincoln, Weather by CustomWeather, © 2014

Note: Actual official high and low records may vary slightly from our data, if they occured in-between our weather recording intervals... More about our weather records

Advertising

Lincoln weather history for previous 24 hours

 ConditionsComfort  
Time TempWeatherWind HumidityBarometerVisibility
6:54 AM
Jan 27
21 °FClear.No wind88%30.14 "Hg10 mi
5:54 AM25 °FClear.No wind92%30.12 "Hg10 mi
4:54 AM24 °FClear.No wind84%30.12 "Hg10 mi
3:54 AM27 °FClear.No wind85%30.11 "Hg10 mi
2:54 AM24 °FClear.5 mph84%30.11 "Hg10 mi
1:54 AM28 °FClear.No wind81%30.10 "Hg10 mi
12:54 AM32 °FClear.No wind79%30.09 "Hg10 mi
11:54 PM
Jan 26
32 °FClear.No wind75%30.09 "Hg10 mi
10:54 PM29 °FClear.3 mph82%30.08 "Hg10 mi
9:54 PM30 °FClear.7 mph79%30.07 "Hg10 mi
8:54 PM38 °FClear.No wind68%30.07 "Hg10 mi
7:54 PM42 °FClear.6 mph60%30.06 "Hg10 mi
6:54 PM47 °FClear.5 mph54%30.04 "Hg10 mi
5:54 PM54 °FClear.7 mph41%30.02 "Hg10 mi
4:54 PM59 °FSunny.9 mph36%30.01 "Hg10 mi
3:54 PM61 °FSunny.16 mph32%29.98 "Hg10 mi
2:54 PM62 °FSunny.16 mph32%29.97 "Hg10 mi
1:54 PM61 °FSunny.17 mph35%29.96 "Hg10 mi
12:54 PM59 °FSunny.18 mph39%29.98 "Hg10 mi
11:54 AM56 °FSunny.16 mph47%29.98 "Hg10 mi
10:54 AM53 °FSunny.16 mph52%29.97 "Hg10 mi
9:54 AM47 °FSunny.14 mph61%29.94 "Hg10 mi
8:54 AM36 °FSunny.5 mph75%29.96 "Hg10 mi
Weather by CustomWeather, © 2014

See weather overviewHow to use our weather pages